Weather History for Biloxi, MS

Change the Weather History Date:

Friday, September 12, 2014

  Actual Average Record
Temperature  
Mean Temperature 84 °F -  
Max Temperature 91 °F 87 °F 95 °F (1996)
Min Temperature 76 °F 71 °F 59 °F (1969)
Cooling Degree Days 18    
Growing Degree Days 34 (Base 50)    
Moisture  
Dew Point 76 °F    
Average Humidity 79    
Maximum Humidity 95    
Minimum Humidity 59    
Precipitation  
Precipitation 0.01 in - - ()
Sea Level Pressure  
Sea Level Pressure 30.00 in    
Wind  
Wind Speed 6 mph (East)    
Max Wind Speed 14 mph    
Max Gust Speed 21 mph    
Visibility 10 miles    
Events Rain , Thunderstorm    
Averages and records for this station are not official NWS values.
T = Trace of Precipitation, MM = Missing Value Source: NWS Daily Summary

Daily Weather History Graph

Daily Weather History Graph

Search for Another Location

Airport:

Trip Planner

Search our weather history database for the weather conditions in past years. The results will help you decide how hot, cold, wet, or windy it might be!

Date:

Astronomy

Sep. 12, 2014 Rise Set
Actual Time 6:38 AM CDT 7:04 PM CDT
Civil Twilight 6:14 AM CDT 7:29 PM CDT
Nautical Twilight 5:46 AM CDT 7:57 PM CDT
Astronomical Twilight 5:17 AM CDT 8:25 PM CDT
Moon 9:45 PM CDT (9/12) 10:23 AM CDT (9/12)
Length of Visible Light 13h 14m
Length of Day
12h 26m
Waning Gibbous, 83% of the Moon is Illuminated
Sep 12
Waning Gibbous
Sep 15
Last Quarter
Sep 24
New
Oct 1
First Quarter
Oct 8
Full

Hourly Weather History & Observations

Time (CDT) Temp. Heat Index Dew Point Humidity Pressure Visibility Wind Dir Wind Speed Gust Speed Precip Events Conditions
12:38 AM 82.4 °F 90.9 °F 77.0 °F 84% 29.99 in 10.0 mi ENE 4.6 mph - N/A   Mostly Cloudy
12:43 AM 82.4 °F 90.9 °F 77.0 °F 84% 29.99 in 10.0 mi ENE 3.5 mph - N/A   Scattered Clouds
12:58 AM 81.1 °F 87.8 °F 76.3 °F 85% 30.00 in 10.0 mi ENE 4.6 mph - N/A   Scattered Clouds
1:28 AM 80.6 °F 87.1 °F 77.0 °F 89% 29.99 in 10.0 mi NNE 3.5 mph - N/A   Mostly Cloudy
1:38 AM 80.6 °F 87.1 °F 77.0 °F 89% 29.99 in 10.0 mi Variable 3.5 mph - N/A   Mostly Cloudy
1:58 AM 79.3 °F - 76.3 °F 90% 30.00 in 10.0 mi North 4.6 mph - N/A   Partly Cloudy
2:58 AM 77.7 °F - 75.4 °F 92% 29.99 in 10.0 mi NE 4.6 mph - N/A   Clear
3:57 AM 77.0 °F - 75.2 °F 94% 29.98 in 10.0 mi East 4.6 mph - N/A Thunderstorm Thunderstorm
3:58 AM 77.0 °F - 75.2 °F 94% 29.99 in 10.0 mi East 4.6 mph - N/A Thunderstorm Thunderstorm
4:20 AM 78.8 °F - 75.2 °F 89% 29.98 in 10.0 mi ESE 5.8 mph - N/A   Clear
4:58 AM 79.0 °F - 71.8 °F 78% 29.99 in 10.0 mi North 1.2 mph - N/A   Clear
5:58 AM 77.4 °F - 74.7 °F 91% 29.99 in 10.0 mi NNE 5.8 mph - N/A   Clear
6:58 AM 76.5 °F - 74.8 °F 95% 30.01 in 10.0 mi NE 6.9 mph - N/A   Clear
7:58 AM 79.7 °F - 75.2 °F 86% 30.02 in 10.0 mi ENE 5.8 mph - N/A   Clear
8:58 AM 84.4 °F 93.9 °F 76.6 °F 77% 30.03 in 10.0 mi ENE 6.9 mph - N/A   Clear
9:58 AM 87.3 °F 99.3 °F 77.2 °F 72% 30.03 in 10.0 mi East 5.8 mph - N/A   Clear
10:58 AM 86.9 °F 96.8 °F 75.7 °F 69% 30.03 in 10.0 mi East 3.5 mph - N/A   Mostly Cloudy
11:08 AM 87.8 °F 97.6 °F 75.2 °F 66% 30.01 in 10.0 mi Variable 3.5 mph - N/A   Mostly Cloudy
11:28 AM 87.8 °F 99.7 °F 77.0 °F 70% 30.01 in 10.0 mi SSE 9.2 mph - N/A   Mostly Cloudy
11:58 AM 86.0 °F 93.4 °F 73.6 °F 66% 30.02 in 10.0 mi Variable 6.9 mph - N/A Thunderstorm Partly Cloudy
12:02 PM 86.0 °F 96.9 °F 77.0 °F 74% 30.01 in 10.0 mi East 12.7 mph - N/A Rain , Thunderstorm Rain
12:15 PM 84.2 °F 94.1 °F 77.0 °F 79% 30.01 in 10.0 mi NE 10.4 mph - N/A   Partly Cloudy
12:26 PM 84.2 °F 92.3 °F 75.2 °F 74% 30.01 in 10.0 mi NE 9.2 mph - N/A Thunderstorm Thunderstorm
12:41 PM 84.2 °F 94.1 °F 77.0 °F 79% 30.01 in 10.0 mi ESE 9.2 mph - N/A   Scattered Clouds
12:58 PM 85.8 °F 95.1 °F 75.6 °F 71% 30.01 in 10.0 mi East 13.8 mph 20.7 mph 0.01 in Thunderstorm Scattered Clouds
1:58 PM 90.0 °F 101.9 °F 76.5 °F 64% 29.99 in 10.0 mi SSE 10.4 mph - N/A   Clear
2:58 PM 91.4 °F 102.5 °F 75.4 °F 59% 29.98 in 10.0 mi SSE 12.7 mph - N/A   Clear
3:58 PM 89.6 °F 100.4 °F 75.4 °F 63% 29.97 in 10.0 mi South 10.4 mph - N/A   Clear
4:58 PM 89.8 °F 100.9 °F 75.7 °F 63% 29.97 in 10.0 mi SSE 9.2 mph - N/A   Scattered Clouds
5:58 PM 85.5 °F 95.0 °F 76.1 °F 73% 29.97 in 10.0 mi SSW 12.7 mph - N/A   Clear
6:58 PM 84.0 °F 91.2 °F 74.3 °F 72% 29.96 in 10.0 mi South 5.8 mph - N/A   Clear
7:58 PM 83.8 °F 90.8 °F 73.9 °F 72% 30.00 in 10.0 mi SSW 5.8 mph - N/A   Clear
8:58 PM 81.7 °F 87.1 °F 73.6 °F 76% 30.02 in 10.0 mi SSW 4.6 mph - N/A   Partly Cloudy
9:58 PM 82.6 °F 88.8 °F 73.9 °F 75% 30.04 in 10.0 mi Calm Calm - N/A   Partly Cloudy
10:58 PM 80.2 °F 86.1 °F 76.6 °F 89% 30.04 in 10.0 mi NNE 3.5 mph - N/A   Clear
11:58 PM 78.6 °F - 76.1 °F 92% 30.02 in 10.0 mi Calm Calm - N/A   Clear